Miscellaneous Local Product
Issued by NWS Hastings, NE

Home | Current Version | Previous Version | Graphics & Text | Print | Product List | Glossary On
Versions: 1 2 3 4 5 6 7 8 9 10 11 12 13 14 15 16 17 18 19 20 21 22 23 24 25 26 27 28 29 30 31 32 33 34 35 36 37 38 39 40 41 42 43 44 45 46 47 48 49 50
000
AXUS43 KGID 191302
MISGRI

GID CWA HOURLY WEATHER ROUNDUP
NATIONAL WEATHER SERVICE HASTINGS NE
800 AM CDT FRI SEP 19 2014

NOTE: "FAIR" INDICATES FEW OR NO CLOUDS BELOW 12,000 FEET WITH NO
SIGNIFICANT WEATHER AND/OR OBSTRUCTIONS TO VISIBILITY.

...SOUTH CENTRAL NEBRASKA...

CITY           SKY/WX    TMP DP  RH WIND       PRES   REMARKS
GRAND ISLAND   CLEAR     64  61  90 S13       29.90R
HASTINGS       CLEAR     62  59  90 S9        29.91R
KEARNEY        CLEAR     61  57  88 S13       29.90S
ORD            CLEAR     63  60  90 S7        29.83S
YORK           CLOUDY    64  64 100 S14       29.92R
AURORA         CLOUDY    64  63  97 S9G17     29.91R
LEXINGTON      CLEAR     61  60  96 S8        29.89S
HOLDREGE       CLEAR     60  58  93 S10       29.91R
HEBRON         MOCLDY    64  62  90 S8        29.94S FOG

...NEBRASKA PANHANDLE...

CITY           SKY/WX    TMP DP  RH WIND       PRES   REMARKS
CHADRON        PTCLDY    57  52  83 S3        29.85R
ALLIANCE       PTCLDY    49  47  93 CALM      29.87R
SCOTTSBLUFF    MOCLDY    59  53  80 NW9       29.92R
SIDNEY         CLEAR     61  48  62 W7        29.93R

...WESTERN AND NORTH CENTRAL NEBRASKA...

CITY           SKY/WX    TMP DP  RH WIND       PRES   REMARKS
VALENTINE      CLEAR     58  58 100 SW9       29.78F
AINSWORTH      MOCLDY    61  61  99 SW10      29.81S FOG
ONEILL         CLEAR     65  64  94 S12       29.80S
BROKEN BOW     CLEAR     62  60  93 S9        29.85S
IMPERIAL       CLEAR     59  55  87 S9        29.89R
NORTH PLATTE   CLEAR     58  56  93 S7        29.87S
MCCOOK         CLEAR     53  53 100 CALM      29.90R FOG

...EASTERN NEBRASKA...

CITY           SKY/WX    TMP DP  RH WIND       PRES   REMARKS
NORFOLK        CLOUDY    65  62  90 S15G24    29.85S
SO SIOUX CITY  CLOUDY    64  61  90 S10G18    29.87S
TEKAMAH        PTCLDY    64  61  90 S13       29.90S
ALBION         CLOUDY    63  61  93 S10G17    29.86S
OMAHA EPPLEY   CLOUDY    63  60  90 S18G26    29.93F FOG
OFFUTT AFB     CLOUDY    63  63 100 SE13      29.94F
MILLARD        CLOUDY    64  61  90 SE13      29.93F FOG
LINCOLN        CLOUDY    65  62  90 S10       29.94R
NEBRASKA CITY  CLOUDY    62  62  99 S9        29.98R FOG
BEATRICE       CLEAR     63  62  94 S9        29.95S
FALLS CITY     CLOUDY    63  62  97 S10       29.98S FOG

...NORTHERN KANSAS...

CITY           SKY/WX    TMP DP  RH WIND       PRES   REMARKS
GOODLAND       CLEAR     64  59  83 SW14      29.95R
HILL CITY      CLEAR     61  59  93 S6        29.93R
NORTON         SUNNY     59  55  88 S5        29.90S
PHILLIPSBURG   CLEAR     61  61 100 E6        29.92R
SMITH CENTER   CLEAR     61  59  94 SE10      29.94R
BELOIT         CLEAR     63  63 100 SE9       29.94S
HAYS           CLEAR     63  55  77 S9        29.96R
RUSSELL        CLEAR     64  61  90 S12       29.94R
CONCORDIA      CLEAR     64  63  96 S12       29.96R
SALINA         CLEAR     65  62  90 S7        29.97R
TOPEKA         CLOUDY    64  64 100 SE7       30.01R FOG



USA.gov is the U.S. government's official web portal to all federal, state and local government web resources and services.